GSAT0203 (GALILEO 7)

Last updated on Fri Sep 04 2026 00:02:48 GMT+0000 (Coordinated Universal Time)

1 40544U 15017A 26237.42955080 -.00000090 00000+0 00000+0 0 9992 2 40544 56.7591 339.7098 0004438 251.2904 108.6883 1.70476592 70386
UTC large
Height (km)
Speed (km/s)
/
Latitude / Longitude
Inclination (degrees)
Orbital Period (minutes)
Azimuth
Elevation
Range (km)
Doppler Factor

Next 0 passes for location: London (51.5072 / 0.1276)

No passes found over London.
GSAT0203 (GALILEO 7)